Regional Weather Roundup
Issued by NWS

Home | Current Version | Previous Version | Text Only | Print | Product List | Glossary Off
Versions: 1 2 3 4 5 6 7 8 9 10 11 12 13 14 15 16 17 18 19 20 21 22 23 24 25 26 27 28 29 30 31 32 33 34 35 36 37 38 39 40 41 42 43 44 45 46 47 48 49 50

000
ASUS43 KLSX 050559
RWRMO

WEATHER SUMMARY FOR MISSOURI
NATIONAL WEATHER SERVICE SPRINGFIELD MO
100 AM CDT TUE MAY 05 2015

NOTE: "FAIR" INDICATES FEW OR NO CLOUDS BELOW 12,000 FEET WITH NO
       SIGNIFICANT WEATHER AND/OR OBSTRUCTIONS TO VISIBILITY.
       CURRENT SKY AND/OR WEATHER CONDITIONS ARE NOT AVAILABLE FOR
       CHILLICOTHE AND FARMINGTON.

MOZ001>031-035>038-043-044-053-054-050700-
...NORTHERN AND WESTERN MISSOURI...

CITY           SKY/WX    TMP DP  RH WIND       PRES   REMARKS
KANSAS CTY INT CLOUDY    61  60  97 S3        30.10F
6HR MIN TEMP:  61; 6HR MAX TEMP:  65; 6HR PCP:  0.33;

KANSAS C DTWN  CLOUDY    65  62  90 W5        30.10F
6HR MIN TEMP:  64; 6HR MAX TEMP:  78; 6HR PCP:  0.44;

LEE`S SUMMIT   CLOUDY    62  61  96 E3        30.11F
6HR MIN TEMP:  62; 6HR MAX TEMP:  78; 6HR PCP:  0.08;

ST JOSEPH      CLOUDY    62  61  96 S6        30.08F
6HR MIN TEMP:  62; 6HR MAX TEMP:  67; 6HR PCP:  0.83;

CHILLICOTHE      N/A     62  61  96 CALM      30.12R
6HR MIN TEMP:  62; 6HR MAX TEMP:  71; 6HR PCP:  0.22;

KIRKSVILLE     CLOUDY    62  61  96 NE3       30.10S
6HR MIN TEMP:  62; 6HR MAX TEMP:  73; 6HR PCP:  0.03;


$$
MOZ066>068-077>081-088>096-101>105-050700-
...SOUTHWEST MISSOURI...

CITY           SKY/WX    TMP DP  RH WIND       PRES   REMARKS
SPRINGFIELD    PTCLDY    62  53  72 S7        30.15R
6HR MIN TEMP:  62; 6HR MAX TEMP:  79;

JOPLIN         CLEAR     64  54  69 SE7       30.12F
6HR MIN TEMP:  64; 6HR MAX TEMP:  78;


$$
MOZ032>034-039>042-045>050-055>058-069>072-050700-
...CENTRAL MISSOURI...

CITY           SKY/WX    TMP DP  RH WIND       PRES   REMARKS
COLUMBIA       CLOUDY    68  57  68 S9        30.11R
6HR MIN TEMP:  68; 6HR MAX TEMP:  77;

JEFFERSON CITY CLOUDY    71  55  56 S9        30.11R
6HR MIN TEMP:  69; 6HR MAX TEMP:  81;

ROLLA          MOCLDY    68  55  63 S13G21    30.14R
6HR MIN TEMP:  67; 6HR MAX TEMP:  76;

SEDALIA        CLOUDY    72  60  66 NW5       30.12R
6HR MIN TEMP:  70; 6HR MAX TEMP:  78;

OSAGE BEACH    CLOUDY    66  54  63 S8        30.15R

$$
MOZ051-052-059>065-050700-
...EAST CENTRAL MISSOURI...

CITY           SKY/WX    TMP DP  RH WIND       PRES   REMARKS
ST LOUIS INTL  MOCLDY    75  53  46 S9        30.13R
6HR MIN TEMP:  75; 6HR MAX TEMP:  83;

SPIRIT OF STL  CLOUDY    72  54  53 SW7       30.12R
6HR MIN TEMP:  72; 6HR MAX TEMP:  81;

ST CHARLES     CLOUDY    70  54  56 SW6       30.12R
6HR MIN TEMP:  70; 6HR MAX TEMP:  83;


$$
MOZ072>076-082>087-097>100-106>115-050700-
...SOUTH CENTRAL AND SOUTHEAST MISSOURI...

CITY           SKY/WX    TMP DP  RH WIND       PRES   REMARKS
CAPE GIRARDEAU CLEAR     59  53  80 S8        30.18R
6HR MIN TEMP:  59; 6HR MAX TEMP:  80;

FARMINGTON     PTCLDY    63  54  72 CALM      30.22R
6HR MIN TEMP:  61; 6HR MAX TEMP:  79;

POPLAR BLUFF   CLEAR     60  53  77 CALM      30.17R
6HR MIN TEMP:  60; 6HR MAX TEMP:  80;

WEST PLAINS    CLEAR     67  53  61 S6        30.19R
6HR MIN TEMP:  67; 6HR MAX TEMP:  78;


$$



USA.gov is the U.S. government's official web portal to all federal, state and local government web resources and services.